Regional Weather Roundup
Issued by NWS

Home | Current Version | Previous Version | Text Only | Print | Product List | Glossary On
Versions: 1 2 3 4 5 6 7 8 9 10 11 12 13 14 15 16 17 18 19 20 21 22 23 24 25 26 27 28 29 30 31 32 33 34 35 36 37 38 39 40 41 42 43 44 45 46 47 48 49 50
000
ASUS42 KFFC 310003
RWRGA
WEATHER ROUNDUP FOR GEORGIA
NATIONAL WEATHER SERVICE PEACHTREE CITY GA
800 PM EDT SAT AUG 30 2014

NOTE: "FAIR" INDICATES FEW OR NO CLOUDS BELOW 12,000 FEET WITH NO
SIGNIFICANT WEATHER AND/OR OBSTRUCTIONS TO VISIBILITY.

* = USE WITH CAUTION. THE STATIONS MARKED WITH AN ASTERISK MAY NOT
REPORT WEATHER SUCH AS PRECIPITATION, FOG, OR THUNDER AND ARE NOT
QUALITY CONTROLLED BY NWS.

THE REMARK "TC" DENOTES TEMPERATURE READING IN DEGREES CELSIUS.

GAZ001>058-310100-
NORTH GEORGIA

CITY           SKY/WX    TMP DP  RH WIND       PRES   REMARKS
ATLANTA        CLOUDY    80  74  81 CALM      30.09S
6HR MIN TEMP:  75; 6HR MAX TEMP:  88; 6HR PCP:  0.31;

ATHENS         MOCLDY    85  69  58 CALM      30.10R
6HR MIN TEMP:  85; 6HR MAX TEMP:  93; 6HR PCP: TRACE;

CHAMBLEE       CLOUDY    77  75  93 CALM      30.10R
6HR MIN TEMP:  74; 6HR MAX TEMP:  91; 6HR PCP:  0.20;

PEACHTREE CITY MOCLDY    80  76  87 S3        30.09R
6HR MIN TEMP:  78; 6HR MAX TEMP:  90; 6HR PCP:  0.34;

ROME           CLOUDY    75  72  90 CALM      30.07F
6HR MIN TEMP:  75; 6HR MAX TEMP:  94; 6HR PCP:  0.01;

WEST ATLANTA   CLOUDY    78  74  87 NE3       30.09R
6HR MIN TEMP:  75; 6HR MAX TEMP:  87; 6HR PCP:  0.38;

GAINESVILLE    CLOUDY    79  71  76 E5        30.15R
6HR MIN TEMP:  78; 6HR MAX TEMP:  89; 6HR PCP: TRACE;

CARTERSVILLE   CLOUDY    81  71  71 CALM      30.09R
6HR MIN TEMP:  80; 6HR MAX TEMP:  93;



CITY           SKY/WX    TMP DP  RH WIND       PRES   REMARKS
DALTON*        CLOUDY    73  73 100 CALM      30.10R
LAWRENCEVILLE* MOCLDY    82  68  61 CALM      30.11R
MARIETTA       CLOUDY    77  74  90 E3        30.10R
KENNESAW*      PTCLDY    81  70  69 CALM      30.12R
$$

GAZ059>098-102>109-310100-
CENTRAL GEORGIA

CITY           SKY/WX    TMP DP  RH WIND       PRES   REMARKS
AUGUSTA-BUSH   PTCLDY    84  71  65 SE6       30.07R
6HR MIN TEMP:  84; 6HR MAX TEMP:  95;

AUGUSTA-DANIEL PTCLDY    90  69  50 SE7       30.09R HX  94
6HR MIN TEMP:  90; 6HR MAX TEMP:  95;

COLUMBUS       MOCLDY    81  75  82 CALM      30.06R
6HR MIN TEMP:  79; 6HR MAX TEMP:  96; 6HR PCP:  0.43;

MACON          MOCLDY    86  69  56 W5        30.07R HX  90
6HR MIN TEMP:  86; 6HR MAX TEMP:  95;

ROBINS AFB     MOCLDY    85  76  74 E2        30.06R HX  94


CITY           SKY/WX    TMP DP  RH WIND       PRES   REMARKS
LAGRANGE*      MOCLDY    83  73  71 S3        30.09R HX  90
SYLVANIA*      CLEAR     83  73  71 CALM      30.10R
MILLEDGEVILLE* MOCLDY    86  73  66 CALM      30.07R HX  93
$$

GAZ099>101-110>166-310100-
SOUTH GEORGIA

CITY           SKY/WX    TMP DP  RH WIND       PRES   REMARKS
SAVANNAH       PTCLDY    84  73  69 SE7       30.11R HX  90
6HR MIN TEMP:  84; 6HR MAX TEMP:  93;

VALDOSTA       MOCLDY    83  69  62 CALM      30.07R
6HR MIN TEMP:  83; 6HR MAX TEMP:  95;

ALMA           CLEAR     86  71  60 E8        30.07R HX  91
6HR MIN TEMP:  86; 6HR MAX TEMP:  96;

ST SIMONS      PTCLDY    82  76  81 E6        30.09R
6HR MIN TEMP:  82; 6HR MAX TEMP:  88;

FT STEWART     MOCLDY    84  73  70 SE6       30.09R HX  90
ALBANY         LGT RAIN  83  73  72 SE10G23   30.08R
HUNTER AFB     CLEAR     83  75  77 SE6       30.09R
BRUNSWICK      CLEAR     84  73  70 E5        30.10R HX  91


CITY           SKY/WX    TMP DP  RH WIND       PRES   REMARKS
BAINBRIDGE*    MOCLDY    84  77  79 SW7       30.06S HX  94
MOULTRIE*      PTCLDY    82  72  69 W9        30.08R
VIDALIA*         N/A     86  73  66 SE5       30.08R HX  93
WAYCROSS*      CLEAR     89  76  65 SE7       30.07S HX 101
DOUGLAS*       CLEAR     90  70  51 SE3       30.08R HX  95
$$


USA.gov is the U.S. government's official web portal to all federal, state and local government web resources and services.